• In Netherlands
  • List of Countries
  • For 7 days
  • Water Temperature
  • Satellite Maps
  • Weather Map
  • Weather Widgets
  • user-avatar
    Login

    Hourly Weather Tarin Kowt

    Today, 27 April, Friday

    Time Temperature Precipitation Wind Pressure Humidity
    00:00 +21°C° 0 mm 1 mps 617 mmHg 29%
    01:00 +20°C° 0 mm 1 mps 617 mmHg 30%
    02:00 +20°C° 0 mm 1 mps 617 mmHg 30%
    03:00 +19°C° 0 mm 1 mps 617 mmHg 31%
    04:00 +19°C° 0 mm 1 mps 616 mmHg 32%
    05:00 +19°C° 0 mm 1 mps 617 mmHg 29%
    06:00 +20°C° 0 mm 1 mps 618 mmHg 26%
    07:00 +19°C° 0 mm 0 mps 618 mmHg 23%
    08:00 +22°C° 0 mm 1 mps 619 mmHg 20%
    09:00 +24°C° 0 mm 1 mps 619 mmHg 18%
    10:00 +25°C° 0 mm 2 mps 620 mmHg 16%
    11:00 +26°C° 0 mm 3 mps 620 mmHg 14%
    12:00 +27°C° 0 mm 4 mps 620 mmHg 13%
    13:00 +28°C° 0 mm 4 mps 620 mmHg 11%
    14:00 +28°C° 0 mm 5 mps 620 mmHg 11%
    15:00 +28°C° 0 mm 5 mps 620 mmHg 11%
    16:00 +28°C° 0 mm 5 mps 619 mmHg 11%
    17:00 +27°C° 0 mm 4 mps 619 mmHg 13%
    18:00 +26°C° 0 mm 4 mps 619 mmHg 15%
    19:00 +24°C° 0 mm 3 mps 619 mmHg 17%
    20:00 +23°C° 0 mm 2 mps 619 mmHg 19%
    21:00 +23°C° 0 mm 2 mps 619 mmHg 20%
    22:00 +21°C° 0 mm 2 mps 619 mmHg 22%
    23:00 +21°C° 0 mm 1 mps 619 mmHg 23%

    Tomorrow, 28 April, Saturday

    Time Temperature Precipitation Wind Pressure Humidity
    00:00 +20°C° 0 mm 1 mps 618 mmHg 24%
    01:00 +20°C° 0 mm 1 mps 618 mmHg 25%
    02:00 +19°C° 0 mm 1 mps 618 mmHg 25%
    03:00 +19°C° 0 mm 1 mps 617 mmHg 25%
    04:00 +18°C° 0 mm 1 mps 617 mmHg 25%
    05:00 +19°C° 0 mm 1 mps 618 mmHg 23%
    06:00 +21°C° 0 mm 1 mps 619 mmHg 20%
    07:00 +22°C° 0 mm 1 mps 619 mmHg 17%
    08:00 +23°C° 0 mm 1 mps 620 mmHg 16%
    09:00 +24°C° 0 mm 1 mps 620 mmHg 14%
    10:00 +26°C° 0 mm 2 mps 621 mmHg 13%
    11:00 +27°C° 0 mm 3 mps 621 mmHg 13%
    12:00 +28°C° 0 mm 4 mps 621 mmHg 12%
    13:00 +29°C° 0 mm 5 mps 621 mmHg 12%
    14:00 +29°C° 0 mm 5 mps 621 mmHg 12%
    15:00 +29°C° 0 mm 6 mps 620 mmHg 13%
    16:00 +29°C° 0 mm 6 mps 620 mmHg 13%
    17:00 +28°C° 0 mm 5 mps 620 mmHg 15%
    18:00 +27°C° 0 mm 4 mps 620 mmHg 18%
    19:00 +26°C° 0 mm 3 mps 619 mmHg 20%
    20:00 +25°C° 0 mm 3 mps 619 mmHg 22%
    21:00 +24°C° 0 mm 2 mps 619 mmHg 23%
    22:00 +23°C° 0 mm 2 mps 619 mmHg 25%
    23:00 +22°C° 0 mm 1 mps 619 mmHg 26%

    Day after tomorrow, 29 April, Sunday

    Time Temperature Precipitation Wind Pressure Humidity
    00:00 +22°C° 0 mm 1 mps 619 mmHg 27%
    01:00 +21°C° 0 mm 1 mps 618 mmHg 28%
    02:00 +20°C° 0 mm 1 mps 618 mmHg 28%
    03:00 +20°C° 0 mm 1 mps 618 mmHg 28%
    04:00 +19°C° 0 mm 1 mps 617 mmHg 28%
    05:00 +21°C° 0 mm 1 mps 618 mmHg 25%
    06:00 +21°C° 0 mm 2 mps 619 mmHg 23%
    07:00 +23°C° 0 mm 2 mps 620 mmHg 21%
    08:00 +24°C° 0 mm 2 mps 620 mmHg 18%
    09:00 +26°C° 0 mm 2 mps 620 mmHg 16%
    10:00 +27°C° 0 mm 2 mps 620 mmHg 13%
    11:00 +28°C° 0 mm 3 mps 620 mmHg 12%
    12:00 +29°C° 0 mm 3 mps 620 mmHg 11%
    13:00 +30°C° 0 mm 4 mps 620 mmHg 10%
    14:00 +30°C° 0 mm 4 mps 619 mmHg 10%
    15:00 +32°C° 0 mm 4 mps 619 mmHg 10%
    16:00 +32°C° 0 mm 4 mps 619 mmHg 10%
    17:00 +30°C° 0 mm 4 mps 618 mmHg 13%
    18:00 +28°C° 0 mm 3 mps 618 mmHg 16%
    19:00 +27°C° 0 mm 2 mps 618 mmHg 19%
    20:00 +26°C° 0 mm 2 mps 618 mmHg 20%
    21:00 +25°C° 0 mm 2 mps 617 mmHg 21%
    22:00 +24°C° 0 mm 1 mps 617 mmHg 22%
    23:00 +24°C° 0 mm 1 mps 617 mmHg 23%

    30 April, Monday

    Time Temperature Precipitation Wind Pressure Humidity
    00:00 +23°C° 0 mm 1 mps 616 mmHg 24%
    01:00 +22°C° 0 mm 1 mps 616 mmHg 24%
    02:00 +22°C° 0 mm 1 mps 615 mmHg 24%
    03:00 +22°C° 0 mm 1 mps 615 mmHg 24%
    04:00 +21°C° 0 mm 1 mps 615 mmHg 25%
    05:00 +22°C° 0 mm 1 mps 616 mmHg 23%
    06:00 +23°C° 0 mm 1 mps 616 mmHg 21%
    07:00 +24°C° 0 mm 1 mps 617 mmHg 19%
    08:00 +26°C° 0 mm 2 mps 617 mmHg 18%
    09:00 +27°C° 0 mm 3 mps 618 mmHg 16%
    10:00 +28°C° 0 mm 3 mps 618 mmHg 15%
    11:00 +29°C° 0 mm 5 mps 618 mmHg 14%
    12:00 +30°C° 0 mm 7 mps 618 mmHg 13%
    13:00 +32°C° 0 mm 9 mps 618 mmHg 13%
    14:00 +32°C° 0 mm 9 mps 617 mmHg 12%
    15:00 +31°C° 0 mm 9 mps 617 mmHg 11%
    16:00 +31°C° 0 mm 10 mps 616 mmHg 10%
    17:00 +28°C° 0 mm 8 mps 616 mmHg 13%
    18:00 +27°C° 0 mm 7 mps 616 mmHg 15%
    19:00 +24°C° 0 mm 6 mps 616 mmHg 17%
    20:00 +23°C° 0 mm 5 mps 616 mmHg 19%
    21:00 +22°C° 0 mm 3 mps 616 mmHg 22%
    22:00 +21°C° 0 mm 2 mps 617 mmHg 24%
    23:00 +21°C° 0 mm 2 mps 616 mmHg 27%

    1 May, Tuesday

    Time Temperature Precipitation Wind Pressure Humidity
    00:00 +21°C° 0 mm 1 mps 616 mmHg 29%
    01:00 +20°C° 0 mm 1 mps 615 mmHg 31%
    02:00 +20°C° 0 mm 1 mps 615 mmHg 32%
    03:00 +19°C° 0 mm 1 mps 616 mmHg 33%
    04:00 +19°C° 0 mm 1 mps 616 mmHg 33%
    05:00 +20°C° 0 mm 1 mps 616 mmHg 32%
    06:00 +20°C° 0 mm 2 mps 617 mmHg 30%
    07:00 +20°C° 0 mm 2 mps 618 mmHg 28%
    08:00 +21°C° 0 mm 2 mps 618 mmHg 26%
    09:00 +23°C° 0 mm 2 mps 618 mmHg 24%
    10:00 +25°C° 0 mm 2 mps 619 mmHg 21%
    11:00 +26°C° 0 mm 3 mps 618 mmHg 20%
    12:00 +27°C° 0 mm 3 mps 618 mmHg 18%
    13:00 +28°C° 0 mm 4 mps 618 mmHg 16%
    14:00 +28°C° 0 mm 5 mps 618 mmHg 16%
    15:00 +28°C° 0 mm 5 mps 618 mmHg 16%
    16:00 +28°C° 0 mm 6 mps 617 mmHg 16%
    17:00 +27°C° 0 mm 5 mps 617 mmHg 17%
    18:00 +26°C° 0 mm 5 mps 617 mmHg 19%
    19:00 +25°C° 0 mm 4 mps 617 mmHg 21%
    20:00 +23°C° 0 mm 4 mps 617 mmHg 23%
    21:00 +22°C° 0 mm 3 mps 617 mmHg 24%
    22:00 +21°C° 0 mm 3 mps 617 mmHg 26%
    23:00 +20°C° 0 mm 2 mps 616 mmHg 28%

    2 May, Wednesday

    Time Temperature Precipitation Wind Pressure Humidity
    00:00 +20°C° 0 mm 2 mps 616 mmHg 30%
    01:00 +20°C° 0 mm 1 mps 615 mmHg 32%
    02:00 +19°C° 0 mm 1 mps 615 mmHg 34%
    03:00 +19°C° 0 mm 1 mps 615 mmHg 35%
    04:00 +18°C° 0 mm 1 mps 615 mmHg 37%
    05:00 +19°C° 0 mm 1 mps 615 mmHg 36%
    06:00 +19°C° 0 mm 1 mps 616 mmHg 35%
    07:00 +20°C° 0 mm 1 mps 616 mmHg 34%
    08:00 +20°C° 0 mm 2 mps 617 mmHg 31%
    09:00 +21°C° 0 mm 3 mps 617 mmHg 28%
    10:00 +22°C° 0 mm 3 mps 617 mmHg 26%
    11:00 +23°C° 0 mm 4 mps 617 mmHg 24%
    12:00 +23°C° 0 mm 4 mps 617 mmHg 22%
    13:00 +25°C° 0 mm 5 mps 617 mmHg 20%
    14:00 +24°C° 0 mm 6 mps 616 mmHg 20%
    15:00 +24°C° 0 mm 6 mps 616 mmHg 20%
    16:00 +24°C° 0 mm 7 mps 616 mmHg 20%
    17:00 +22°C° 0 mm 7 mps 616 mmHg 21%
    18:00 +21°C° 0 mm 8 mps 616 mmHg 21%
    19:00 +18°C° 0 mm 8 mps 615 mmHg 22%
    20:00 +17°C° 0 mm 8 mps 615 mmHg 23%
    21:00 +16°C° 0 mm 7 mps 615 mmHg 24%
    22:00 +15°C° 0 mm 6 mps 615 mmHg 24%
    23:00 +14°C° 0 mm 5 mps 615 mmHg 25%
    Show more